| time (UTC) | temp C | wind direction | speed KPH | gust KPH | rain 1hr cm | rain 24hr cm | rain mn cm | humidity % | barometer mb |
| 20260504232023 | 13 | 292 | 0.0 | 0.0 | 0.00 | 0.00 | 0.00 | 66 | 1007.5 |
| 20260504231937 | 13 | 107 | 0.0 | 1.6 | 0.00 | 0.00 | 0.00 | 65 | 1005.5 |
| 20260504231433 | 14 | 89 | 0.0 | 3.2 | 0.00 | 0.00 | 0.00 | 64 | 1005.4 |
| 20260504231023 | 15 | 292 | 0.0 | 0.0 | 0.00 | 0.00 | 0.00 | 63 | 1007.5 |
| 20260504230929 | 15 | 89 | 0.0 | 1.6 | 0.00 | 0.00 | 0.00 | 63 | 1005.3 |
| 20260504230426 | 15 | 118 | 0.0 | 0.0 | 0.00 | 0.00 | 0.00 | 62 | 1005.3 |
| 20260504230122 | 15 | 292 | 0.0 | 0.0 | 0.00 | 0.00 | 0.00 | 59 | 1007.3 |
| 20260504225926 | 15 | 77 | 0.0 | 0.0 | 0.00 | 0.00 | 0.00 | 60 | 1005.2 |
| 20260504225422 | 16 | 84 | 0.0 | 0.0 | 0.00 | 0.00 | 0.00 | 54 | 1005.4 |
| 20260504224919 | 16 | 0 | 0.0 | 1.6 | 0.00 | 0.00 | 0.00 | 54 | 1005.3 |
| 20260504224415 | 16 | 249 | 0.0 | 4.8 | 0.00 | 0.00 | 0.00 | 53 | 1005.2 |
| 20260504224221 | 16 | 294 | 1.6 | 8.0 | 0.00 | 0.00 | 0.00 | 55 | 1007.2 |
| 20260504223913 | 16 | 354 | 1.6 | 3.2 | 0.00 | 0.00 | 0.00 | 53 | 1005.2 |
| 20260504223408 | 16 | 10 | 3.2 | 3.2 | 0.00 | 0.00 | 0.00 | 52 | 1005.1 |
| 20260504223224 | 16 | 270 | 0.0 | 0.0 | 0.00 | 0.00 | 0.00 | 54 | 1007.2 |
| 20260504222904 | 16 | 308 | 3.2 | 3.2 | 0.00 | 0.00 | 0.00 | 50 | 1005.1 |
| 20260504222402 | 16 | 288 | 0.0 | 8.0 | 0.00 | 0.00 | 0.00 | 49 | 1004.9 |
| 20260504222223 | 16 | 292 | 0.0 | 1.6 | 0.00 | 0.00 | 0.00 | 54 | 1007.2 |
| 20260504221900 | 16 | 249 | 3.2 | 6.4 | 0.00 | 0.00 | 0.00 | 51 | 1005.1 |
| 20260504221356 | 16 | 315 | 3.2 | 19.3 | 0.00 | 0.00 | 0.00 | 49 | 1005.0 |
| 20260504221321 | 16 | 318 | 1.6 | 8.0 | 0.00 | 0.00 | 0.00 | 54 | 1007.1 |
| 20260504220854 | 17 | 243 | 4.8 | 6.4 | 0.00 | 0.00 | 0.00 | 49 | 1005.0 |
| 20260504220350 | 17 | 281 | 4.8 | 11.3 | 0.00 | 0.00 | 0.00 | 48 | 1005.2 |
| 20260504215847 | 17 | 272 | 3.2 | 4.8 | 0.00 | 0.00 | 0.00 | 51 | 1005.0 |
| 20260504215344 | 16 | 335 | 0.0 | 8.0 | 0.00 | 0.00 | 0.00 | 50 | 1005.0 |
| 20260504215324 | 16 | 294 | 1.6 | 6.4 | 0.00 | 0.00 | 0.00 | 54 | 1007.2 |
| 20260504214840 | 16 | 267 | 3.2 | 6.4 | 0.00 | 0.00 | 0.00 | 50 | 1005.1 |
| 20260504214337 | 16 | 236 | 3.2 | 6.4 | 0.00 | 0.00 | 0.00 | 50 | 1005.1 |
| 20260504214321 | 16 | 302 | 4.8 | 14.5 | 0.00 | 0.00 | 0.00 | 54 | 1007.2 |
| 20260504213833 | 16 | 280 | 1.6 | 6.4 | 0.00 | 0.00 | 0.00 | 50 | 1005.0 |
| 20260504213329 | 16 | 295 | 8.0 | 8.0 | 0.00 | 0.00 | 0.00 | 49 | 1005.1 |
| 20260504212827 | 17 | 345 | 6.4 | 14.5 | 0.00 | 0.00 | 0.00 | 48 | 1005.0 |
| 20260504212323 | 17 | 241 | 11.3 | 17.7 | 0.00 | 0.00 | 0.00 | 47 | 1004.9 |
| 20260504211821 | 17 | 245 | 11.3 | 12.9 | 0.00 | 0.00 | 0.00 | 47 | 1004.8 |
| 20260504211316 | 17 | 305 | 4.8 | 11.3 | 0.00 | 0.00 | 0.00 | 48 | 1004.6 |
| 20260504210814 | 18 | 225 | 9.7 | 9.7 | 0.00 | 0.00 | 0.00 | 45 | 1004.7 |
| 20260504210521 | 16 | 325 | 6.4 | 12.9 | 0.00 | 0.00 | 0.00 | 55 | 1006.8 |
| 20260504210422 | 16 | 321 | 4.8 | 9.7 | 0.00 | 0.00 | 0.00 | 55 | 1006.6 |
| 20260504210311 | 17 | 306 | 4.8 | 25.7 | 0.00 | 0.00 | 0.00 | 48 | 1004.6 |
| 20260504205809 | 17 | 257 | 3.2 | 20.9 | 0.00 | 0.00 | 0.00 | 47 | 1004.8 |
| 20260504205521 | 16 | 257 | 3.2 | 11.3 | 0.00 | 0.00 | 0.00 | 54 | 1006.5 |
| 20260504205306 | 17 | 301 | 12.9 | 19.3 | 0.00 | 0.00 | 0.00 | 49 | 1004.7 |
| 20260504204804 | 17 | 335 | 3.2 | 16.1 | 0.00 | 0.00 | 0.00 | 50 | 1004.8 |
| 20260504204523 | 16 | 302 | 8.0 | 14.5 | 0.00 | 0.00 | 0.00 | 54 | 1006.5 |
| 20260504204302 | 17 | 336 | 6.4 | 9.7 | 0.00 | 0.00 | 0.00 | 50 | 1004.6 |
| 20260504203801 | 17 | 321 | 8.0 | 16.1 | 0.00 | 0.00 | 0.00 | 51 | 1004.7 |
| 20260504203524 | 17 | 264 | 3.2 | 6.4 | 0.00 | 0.00 | 0.00 | 54 | 1006.7 |
| 20260504203258 | 17 | 318 | 4.8 | 14.5 | 0.00 | 0.00 | 0.00 | 48 | 1004.6 |
| 20260504202758 | 17 | 296 | 6.4 | 16.1 | 0.00 | 0.00 | 0.00 | 50 | 1004.5 |
| 20260504202256 | 17 | 249 | 6.4 | 6.4 | 0.00 | 0.00 | 0.00 | 48 | 1004.6 |
| 20260504201753 | 16 | 340 | 3.2 | 14.5 | 0.00 | 0.00 | 0.00 | 51 | 1004.6 |
| 20260504201525 | 16 | 215 | 1.6 | 6.4 | 0.00 | 0.00 | 0.00 | 54 | 1006.8 |
| 20260504201250 | 16 | 273 | 12.9 | 19.3 | 0.00 | 0.00 | 0.00 | 52 | 1004.6 |
| 20260504200748 | 16 | 272 | 16.1 | 24.1 | 0.00 | 0.00 | 0.00 | 51 | 1004.6 |
| 20260504200622 | 17 | 302 | 6.4 | 16.1 | 0.00 | 0.00 | 0.00 | 55 | 1006.5 |
| 20260504200243 | 16 | 264 | 8.0 | 11.3 | 0.00 | 0.00 | 0.00 | 53 | 1004.4 |
| 20260504195740 | 17 | 254 | 9.7 | 19.3 | 0.00 | 0.00 | 0.00 | 49 | 1004.4 |
| 20260504195623 | 16 | 212 | 3.2 | 11.3 | 0.00 | 0.03 | 0.00 | 55 | 1006.5 |
| 20260504195236 | 17 | 232 | 11.3 | 22.5 | 0.00 | 0.00 | 0.00 | 49 | 1004.4 |
| 20260504194733 | 17 | 295 | 6.4 | 9.7 | 0.00 | 0.00 | 0.00 | 48 | 1004.4 |
| 20260504194722 | 17 | 315 | 4.8 | 11.3 | 0.00 | 0.03 | 0.00 | 55 | 1006.2 |
| 20260504194229 | 17 | 238 | 16.1 | 24.1 | 0.00 | 0.00 | 0.00 | 51 | 1004.4 |
| 20260504193726 | 16 | 229 | 6.4 | 22.5 | 0.00 | 0.00 | 0.00 | 51 | 1004.3 |
| 20260504193722 | 17 | 352 | 6.4 | 20.9 | 0.00 | 0.03 | 0.00 | 58 | 1006.4 |
| 20260504193223 | 16 | 301 | 14.5 | 20.9 | 0.00 | 0.00 | 0.00 | 52 | 1004.3 |
| 20260504192722 | 16 | 267 | 6.4 | 17.7 | 0.00 | 0.03 | 0.00 | 59 | 1006.5 |
| 20260504192219 | 16 | 259 | 12.9 | 14.5 | 0.00 | 0.00 | 0.00 | 56 | 1004.4 |
| 20260504191723 | 16 | 198 | 3.2 | 6.4 | 0.00 | 0.03 | 0.00 | 58 | 1006.3 |
| 20260504191718 | 16 | 256 | 9.7 | 29.0 | 0.00 | 0.00 | 0.00 | 55 | 1004.5 |
| 20260504191214 | 16 | 288 | 9.7 | 33.8 | 0.00 | 0.00 | 0.00 | 57 | 1004.3 |
| 20260504190723 | 15 | 317 | 4.8 | 9.7 | 0.00 | 0.03 | 0.00 | 62 | 1006.3 |
| 20260504190709 | 16 | 278 | 9.7 | 16.1 | 0.00 | 0.00 | 0.00 | 57 | 1004.5 |
| 20260504190206 | 16 | 272 | 8.0 | 20.9 | 0.00 | 0.00 | 0.00 | 57 | 1004.5 |
| 20260504185821 | 15 | 322 | 3.2 | 8.0 | 0.00 | 0.05 | 0.00 | 66 | 1006.6 |
| 20260504185703 | 16 | 220 | 12.9 | 17.7 | 0.00 | 0.00 | 0.00 | 57 | 1004.7 |
| 20260504185159 | 15 | 244 | 11.3 | 19.3 | 0.00 | 0.00 | 0.00 | 59 | 1004.7 |
| 20260504184655 | 14 | 53 | 3.2 | 11.3 | 0.00 | 0.00 | 0.00 | 64 | 1004.9 |
| 20260504184150 | 13 | 263 | 11.3 | 17.7 | 0.00 | 0.00 | 0.00 | 63 | 1005.0 |
| 20260504183921 | 14 | 259 | 0.0 | 4.8 | 0.00 | 0.10 | 0.00 | 65 | 1007.2 |
| 20260504183647 | 13 | 225 | 4.8 | 14.5 | 0.00 | 0.00 | 0.00 | 64 | 1004.8 |
| 20260504183145 | 14 | 262 | 9.7 | 20.9 | 0.00 | 0.00 | 0.00 | 63 | 1004.9 |
| 20260504182643 | 13 | 257 | 4.8 | 14.5 | 0.00 | 0.00 | 0.00 | 65 | 1005.0 |
| 20260504182140 | 13 | 279 | 8.0 | 14.5 | 0.00 | 0.00 | 0.00 | 67 | 1004.9 |
| 20260504181922 | 13 | 252 | 1.6 | 6.4 | 0.00 | 0.15 | 0.00 | 66 | 1007.2 |
| 20260504181637 | 13 | 259 | 11.3 | 12.9 | 0.00 | 0.00 | 0.00 | 67 | 1005.1 |
| 20260504181135 | 13 | 241 | 8.0 | 16.1 | 0.00 | 0.00 | 0.00 | 67 | 1005.2 |
| 20260504180922 | 13 | 349 | 3.2 | 8.0 | 0.00 | 0.18 | 0.00 | 66 | 1007.3 |
| 20260504180634 | 13 | 221 | 11.3 | 17.7 | 0.00 | 0.00 | 0.00 | 67 | 1005.1 |
| 20260504180132 | 13 | 286 | 11.3 | 12.9 | 0.00 | 0.00 | 0.00 | 65 | 1005.3 |
| 20260504175629 | 13 | 265 | 6.4 | 16.1 | 0.00 | 0.00 | 0.00 | 67 | 1005.2 |
| 20260504175125 | 13 | 298 | 12.9 | 20.9 | 0.00 | 0.00 | 0.00 | 65 | 1005.3 |
| 20260504174923 | 13 | 313 | 1.6 | 11.3 | 0.00 | 0.20 | 0.00 | 68 | 1007.4 |
| 20260504174624 | 13 | 226 | 3.2 | 9.7 | 0.00 | 0.00 | 0.00 | 66 | 1005.5 |
| 20260504174120 | 13 | 243 | 8.0 | 12.9 | 0.00 | 0.00 | 0.00 | 67 | 1005.3 |
| 20260504173922 | 13 | 299 | 1.6 | 6.4 | 0.00 | 0.23 | 0.00 | 67 | 1007.5 |
| 20260504173617 | 12 | 214 | 14.5 | 16.1 | 0.00 | 0.00 | 0.00 | 66 | 1005.4 |
| 20260504173115 | 13 | 253 | 9.7 | 11.3 | 0.00 | 0.00 | 0.00 | 67 | 1005.5 |
| 20260504172611 | 12 | 275 | 4.8 | 11.3 | 0.00 | 0.00 | 0.00 | 68 | 1005.6 |
| 20260504172108 | 12 | 223 | 6.4 | 22.5 | 0.00 | 0.00 | 0.00 | 67 | 1005.3 |
| 20260504172022 | 13 | 314 | 3.2 | 9.7 | 0.00 | 0.25 | 0.00 | 63 | 1007.4 |
| 20260504171604 | 12 | 273 | 6.4 | 17.7 | 0.00 | 0.00 | 0.00 | 65 | 1005.4 |
| 20260504171101 | 13 | 254 | 14.5 | 16.1 | 0.00 | 0.00 | 0.00 | 62 | 1005.3 |
| 20260504171024 | 13 | 292 | 1.6 | 4.8 | 0.00 | 0.28 | 0.00 | 60 | 1007.2 |
| 20260504170557 | 13 | 294 | 6.4 | 11.3 | 0.00 | 0.00 | 0.00 | 59 | 1005.1 |
| 20260504170122 | 13 | 159 | 3.2 | 6.4 | 0.00 | 0.28 | 0.00 | 58 | 1007.2 |
| 20260504151025 | 14 | 188 | 3.2 | 6.4 | 0.00 | 0.56 | 0.00 | 54 | 1007.2 |
| 20260504150941 | 13 | 230 | 4.8 | 8.0 | 0.00 | 0.00 | 0.00 | 49 | 1005.2 |
| 20260504150437 | 13 | 297 | 9.7 | 9.7 | 0.00 | 0.00 | 0.00 | 50 | 1005.2 |
| 20260504141123 | 14 | 250 | 3.2 | 6.4 | 0.00 | 0.66 | 0.00 | 53 | 1008.2 |
| 20260504140904 | 12 | 133 | 12.9 | 14.5 | 0.00 | 0.00 | 0.00 | 48 | 1006.2 |
| 20260504140400 | 12 | 239 | 9.7 | 9.7 | 0.00 | 0.00 | 0.00 | 49 | 1006.2 |
| 20260504130430 | 13 | 186 | 4.8 | 9.7 | 0.00 | 0.76 | 0.00 | 52 | 1008.9 |
| 20260504130325 | 11 | 290 | 3.2 | 12.9 | 0.00 | 0.00 | 0.00 | 48 | 1006.7 |
| 20260504120248 | 8 | 131 | 0.0 | 9.7 | 0.00 | 0.00 | 0.00 | 57 | 1007.1 |
| 20260504110716 | 5 | 291 | 0.0 | 3.2 | 0.00 | 0.00 | 0.00 | 70 | 1007.1 |
| 20260504110521 | 6 | 292 | 0.0 | 0.0 | 0.00 | 1.12 | 0.00 | 81 | 1008.9 |
| 20260504110423 | 6 | 292 | 0.0 | 1.6 | 0.00 | 1.12 | 0.00 | 81 | 1008.9 |
| 20260504110212 | 5 | 269 | 3.2 | 8.0 | 0.00 | 0.00 | 0.00 | 69 | 1007.2 |
| 20260504100523 | 2 | 290 | 0.0 | 0.0 | 0.00 | 1.32 | 0.00 | 90 | 1008.2 |
| 20260504100130 | 2 | 149 | 3.2 | 3.2 | 0.00 | 0.00 | 0.00 | 81 | 1006.6 |
| 20260504081723 | 2 | 169 | 0.0 | 3.2 | 0.00 | 1.42 | 0.00 | 90 | 1007.5 |
| 20260504081523 | 1 | 134 | 3.2 | 3.2 | 0.00 | 0.00 | 0.00 | 85 | 1006.2 |
| 20260504081019 | 1 | 109 | 3.2 | 3.2 | 0.00 | 0.00 | 0.00 | 84 | 1006.3 |
| 20260504080722 | 2 | 247 | 0.0 | 0.0 | 0.00 | 1.42 | 0.00 | 91 | 1007.9 |
| 20260504080515 | 2 | 119 | 3.2 | 3.2 | 0.00 | 0.00 | 0.00 | 83 | 1006.5 |
| 20260504050334 | 2 | 193 | 3.2 | 4.8 | 0.00 | 0.00 | 0.00 | 79 | 1005.6 |
| 20260504050022 | 3 | 267 | 0.0 | 0.0 | 0.00 | 1.45 | 0.00 | 80 | 1007.2 |
| 20260504045832 | 2 | 132 | 0.0 | 1.6 | 0.00 | 0.00 | 0.00 | 84 | 1005.7 |
| 20260504045331 | 2 | 113 | 0.0 | 3.2 | 0.00 | 0.00 | 0.00 | 81 | 1005.6 |
| 20260504045024 | 3 | 247 | 0.0 | 0.0 | 0.00 | 1.45 | 0.00 | 79 | 1007.2 |
| 20260504044829 | 2 | 97 | 1.6 | 3.2 | 0.00 | 0.00 | 0.00 | 79 | 1005.7 |
| 20260504044326 | 2 | 115 | 1.6 | 3.2 | 0.00 | 0.00 | 0.00 | 79 | 1005.7 |
| 20260504044021 | 4 | 270 | 0.0 | 0.0 | 0.00 | 1.45 | 0.00 | 79 | 1007.2 |
| 20260504043824 | 3 | 114 | 1.6 | 3.2 | 0.00 | 0.00 | 0.00 | 76 | 1005.8 |
| 20260504043320 | 3 | 120 | 3.2 | 3.2 | 0.00 | 0.00 | 0.00 | 76 | 1006.0 |
| 20260504042818 | 3 | 109 | 3.2 | 3.2 | 0.00 | 0.00 | 0.00 | 80 | 1005.8 |
| 20260504042314 | 3 | 129 | 1.6 | 3.2 | 0.00 | 0.00 | 0.00 | 77 | 1005.7 |
| 20260504042122 | 5 | 332 | 0.0 | 0.0 | 0.00 | 1.45 | 0.00 | 75 | 1007.2 |
| 20260504041810 | 3 | 103 | 0.0 | 3.2 | 0.00 | 0.00 | 0.00 | 75 | 1005.6 |
| 20260504041306 | 4 | 218 | 0.0 | 3.2 | 0.00 | 0.00 | 0.00 | 69 | 1005.8 |
| 20260504041123 | 5 | 292 | 0.0 | 1.6 | 0.00 | 1.45 | 0.00 | 75 | 1007.2 |
| 20260504040803 | 4 | 279 | 0.0 | 3.2 | 0.00 | 0.00 | 0.00 | 68 | 1005.6 |
| 20260504040300 | 3 | 235 | 0.0 | 3.2 | 0.00 | 0.00 | 0.00 | 70 | 1005.6 |
| 20260504040121 | 5 | 230 | 0.0 | 0.0 | 0.00 | 1.45 | 0.00 | 77 | 1007.2 |
| 20260504040033 | 4 | 292 | 0.0 | 0.0 | 0.00 | 1.45 | 0.00 | 77 | 1007.0 |
| 20260504035756 | 3 | 298 | 3.2 | 4.8 | 0.00 | 1.45 | 1.45 | 71 | 1005.5 |
| 20260504035253 | 4 | 269 | 0.0 | 1.6 | 0.00 | 1.45 | 1.45 | 68 | 1005.4 |
| 20260504034751 | 5 | 139 | 0.0 | 4.8 | 0.00 | 1.45 | 1.45 | 66 | 1005.3 |
| 20260504034248 | 5 | 269 | 0.0 | 1.6 | 0.00 | 1.45 | 1.45 | 66 | 1005.5 |
| 20260504034028 | 3 | 205 | 0.0 | 3.2 | 0.00 | 1.45 | 1.45 | 79 | 1006.8 |
| 20260504033745 | 5 | 256 | 1.6 | 6.4 | 0.00 | 1.45 | 1.45 | 66 | 1005.4 |
| 20260504033243 | 5 | 196 | 1.6 | 3.2 | 0.00 | 1.45 | 1.45 | 65 | 1005.1 |
| 20260504033027 | 4 | 180 | 0.0 | 0.0 | 0.00 | 1.45 | 1.45 | 78 | 1006.7 |
| 20260504032740 | 5 | 269 | 3.2 | 4.8 | 0.00 | 1.45 | 1.45 | 66 | 1005.3 |
| 20260504032237 | 4 | 277 | 3.2 | 6.4 | 0.00 | 1.45 | 1.45 | 67 | 1005.0 |
| 20260504032125 | 5 | 292 | 0.0 | 3.2 | 0.00 | 1.45 | 1.45 | 78 | 1006.5 |
| 20260504031733 | 3 | 214 | 0.0 | 6.4 | 0.00 | 1.45 | 1.45 | 74 | 1005.0 |
| 20260504031231 | 3 | 114 | 3.2 | 3.2 | 0.00 | 1.45 | 1.45 | 77 | 1005.1 |
| 20260504031126 | 5 | 202 | 0.0 | 1.6 | 0.00 | 1.45 | 1.45 | 75 | 1006.5 |
| 20260504030726 | 4 | 144 | 0.0 | 3.2 | 0.00 | 1.45 | 1.45 | 77 | 1004.9 |
| 20260504030224 | 5 | 256 | 8.0 | 8.0 | 0.00 | 1.45 | 1.45 | 66 | 1004.8 |
| 20260504030126 | 5 | 270 | 0.0 | 0.0 | 0.00 | 1.45 | 1.45 | 73 | 1006.5 |
| 20260504025720 | 5 | 267 | 0.0 | 6.4 | 0.00 | 1.45 | 1.45 | 64 | 1004.9 |
| 20260504025225 | 5 | 292 | 0.0 | 0.0 | 0.00 | 1.45 | 1.45 | 74 | 1006.5 |
| 20260504025217 | 5 | 231 | 1.6 | 3.2 | 0.00 | 1.45 | 1.45 | 65 | 1004.9 |
| 20260504024714 | 5 | 321 | 0.0 | 3.2 | 0.00 | 1.45 | 1.45 | 65 | 1005.0 |
| 20260504024226 | 5 | 292 | 1.6 | 3.2 | 0.00 | 1.45 | 1.45 | 72 | 1006.5 |
| 20260504024211 | 5 | 350 | 1.6 | 1.6 | 0.00 | 1.45 | 1.45 | 64 | 1004.9 |
| 20260504023708 | 5 | 337 | 1.6 | 3.2 | 0.00 | 1.45 | 1.45 | 63 | 1004.9 |
| 20260504023227 | 6 | 292 | 0.0 | 0.0 | 0.00 | 1.45 | 1.45 | 71 | 1006.5 |
| 20260504023203 | 5 | 320 | 0.0 | 3.2 | 0.00 | 1.45 | 1.45 | 64 | 1004.8 |
| 20260504022700 | 5 | 31 | 1.6 | 3.2 | 0.00 | 1.45 | 1.45 | 64 | 1004.9 |
| 20260504022228 | 6 | 292 | 0.0 | 0.0 | 0.00 | 1.45 | 1.45 | 70 | 1006.5 |
| 20260504022156 | 5 | 321 | 0.0 | 3.2 | 0.00 | 1.45 | 1.45 | 64 | 1004.9 |
| 20260504021654 | 5 | 238 | 1.6 | 1.6 | 0.00 | 1.45 | 1.45 | 68 | 1004.8 |
| 20260504021227 | 6 | 293 | 0.0 | 3.2 | 0.00 | 1.45 | 1.45 | 70 | 1006.2 |
| 20260504021150 | 4 | 157 | 0.0 | 1.6 | 0.00 | 1.45 | 1.45 | 71 | 1004.7 |
| 20260504020647 | 4 | 46 | 3.2 | 3.2 | 0.00 | 1.45 | 1.45 | 72 | 1004.9 |
| 20260504020227 | 6 | 308 | 0.0 | 4.8 | 0.00 | 1.45 | 1.45 | 66 | 1006.2 |
| 20260504020143 | 4 | 68 | 0.0 | 3.2 | 0.00 | 1.45 | 1.45 | 73 | 1004.6 |
| 20260504015640 | 4 | 57 | 1.6 | 3.2 | 0.00 | 1.45 | 1.45 | 71 | 1004.6 |
| 20260504015325 | 6 | 294 | 0.0 | 4.8 | 0.00 | 1.45 | 1.45 | 66 | 1006.4 |
| 20260504015137 | 5 | 113 | 0.0 | 1.6 | 0.00 | 1.45 | 1.45 | 69 | 1004.7 |
| 20260504014632 | 5 | 44 | 0.0 | 0.0 | 0.00 | 1.45 | 1.45 | 67 | 1004.6 |
| 20260504014327 | 6 | 247 | 0.0 | 1.6 | 0.00 | 1.45 | 1.45 | 67 | 1006.3 |
| 20260504014130 | 5 | 46 | 0.0 | 0.0 | 0.00 | 1.45 | 1.45 | 67 | 1004.7 |
| 20260504013627 | 5 | 54 | 0.0 | 3.2 | 0.00 | 1.45 | 1.45 | 69 | 1004.8 |
| 20260504013425 | 7 | 277 | 1.6 | 4.8 | 0.00 | 1.45 | 1.45 | 66 | 1006.2 |
| 20260504013124 | 5 | 28 | 0.0 | 1.6 | 0.00 | 1.45 | 1.45 | 66 | 1004.7 |
| 20260504012621 | 5 | 0 | 0.0 | 3.2 | 0.00 | 1.45 | 1.45 | 66 | 1004.5 |
| 20260504012120 | 5 | 61 | 1.6 | 3.2 | 0.00 | 1.45 | 1.45 | 68 | 1004.5 |
| 20260504011616 | 6 | 14 | 0.0 | 3.2 | 0.00 | 1.45 | 1.45 | 64 | 1004.5 |
| 20260504011425 | 7 | 303 | 4.8 | 8.0 | 0.00 | 1.45 | 1.45 | 68 | 1006.2 |
| 20260504011112 | 6 | 332 | 0.0 | 3.2 | 0.00 | 1.45 | 1.45 | 64 | 1004.5 |
| 20260504010608 | 6 | 334 | 0.0 | 4.8 | 0.00 | 1.45 | 1.45 | 62 | 1004.2 |
| 20260504010525 | 7 | 255 | 1.6 | 6.4 | 0.00 | 1.45 | 1.45 | 67 | 1006.0 |
| 20260504010104 | 6 | 358 | 3.2 | 3.2 | 0.00 | 1.45 | 1.45 | 64 | 1004.3 |
| 20260504005601 | 5 | 325 | 3.2 | 3.2 | 0.00 | 1.45 | 1.45 | 66 | 1004.1 |
| 20260504005527 | 7 | 324 | 1.6 | 8.0 | 0.00 | 1.45 | 1.45 | 65 | 1005.8 |
| 20260504005058 | 6 | 51 | 3.2 | 3.2 | 0.00 | 1.45 | 1.45 | 64 | 1004.0 |
| 20260504004556 | 6 | 22 | 0.0 | 3.2 | 0.00 | 1.45 | 1.45 | 62 | 1004.1 |
| 20260504004526 | 7 | 203 | 0.0 | 4.8 | 0.00 | 1.45 | 1.45 | 65 | 1005.8 |
| 20260504004053 | 6 | 42 | 3.2 | 3.2 | 0.00 | 1.45 | 1.45 | 61 | 1004.0 |
| 20260504003548 | 6 | 269 | 0.0 | 4.8 | 0.00 | 1.45 | 1.45 | 61 | 1003.7 |
| 20260504003527 | 8 | 253 | 0.0 | 3.2 | 0.00 | 1.45 | 1.45 | 65 | 1005.5 |
| 20260504003046 | 6 | 314 | 1.6 | 4.8 | 0.00 | 1.45 | 1.45 | 62 | 1003.8 |
| 20260504002542 | 6 | 338 | 0.0 | 3.2 | 0.00 | 1.45 | 1.45 | 62 | 1003.7 |
| 20260504002527 | 8 | 295 | 0.0 | 4.8 | 0.00 | 1.45 | 1.45 | 65 | 1005.5 |
| 20260504002040 | 7 | 322 | 0.0 | 3.2 | 0.00 | 1.45 | 1.45 | 62 | 1003.6 |
| 20260504001538 | 7 | 15 | 0.0 | 3.2 | 0.00 | 1.45 | 1.45 | 60 | 1003.5 |
| 20260504001531 | 8 | 271 | 1.6 | 4.8 | 0.00 | 1.45 | 1.45 | 64 | 1005.2 |
| 20260504001034 | 7 | 12 | 0.0 | 4.8 | 0.00 | 1.45 | 1.45 | 58 | 1003.5 |
| 20260504000626 | 8 | 319 | 6.4 | 16.1 | 0.00 | 1.45 | 1.45 | 66 | 1005.0 |
| 20260504000531 | 7 | 19 | 3.2 | 6.4 | 0.00 | 1.45 | 1.45 | 57 | 1003.3 |
| 20260504000028 | 7 | 356 | 4.8 | 8.0 | 0.00 | 1.45 | 1.45 | 55 | 1003.1 |
| 20260503235626 | 9 | 292 | 0.0 | 1.6 | 0.00 | 1.45 | 1.45 | 67 | 1004.8 |
| 20260503235527 | 8 | 346 | 4.8 | 8.0 | 0.00 | 1.45 | 1.45 | 55 | 1003.2 |
| 20260503235023 | 8 | 344 | 4.8 | 8.0 | 0.00 | 1.45 | 1.45 | 58 | 1002.8 |
| 20260503234724 | 9 | 340 | 1.6 | 4.8 | 0.00 | 1.45 | 1.45 | 70 | 1004.8 |
| 20260503234521 | 8 | 323 | 6.4 | 6.4 | 0.00 | 1.45 | 1.45 | 58 | 1002.8 |
| 20260503234019 | 8 | 338 | 3.2 | 6.4 | 0.00 | 1.45 | 1.45 | 60 | 1002.8 |
| 20260503233515 | 8 | 323 | 4.8 | 6.4 | 0.00 | 1.45 | 1.45 | 60 | 1002.8 |
| 20260503233011 | 8 | 302 | 3.2 | 6.4 | 0.00 | 1.45 | 1.45 | 62 | 1002.8 |
| 20260503232726 | 9 | 241 | 0.0 | 3.2 | 0.00 | 1.45 | 1.45 | 86 | 1004.5 |
| 20260503232508 | 8 | 31 | 0.0 | 4.8 | 0.00 | 1.45 | 1.45 | 62 | 1002.7 |